Weather Roundup
Issued by NWS Corpus Christi, TX

Home | Current Version | Previous Version | Text Only | Print | Product List | Glossary On
Versions: 1 2 3 4 5 6 7 8 9 10 11 12 13 14 15 16 17 18 19 20 21 22 23 24 25 26 27 28 29 30 31 32 33 34 35 36 37 38 39 40 41 42 43 44 45 46 47 48 49 50
000
ASUS44 KCRP 282010
HRRCRP

SOUTH TEXAS REGIONAL WEATHER ROUNDUP
NATIONAL WEATHER SERVICE CORPUS CHRISTI TX
200 PM CST WED JAN 28 2015


TXZ229>244-282100-
...CORPUS CHRISTI AREA OBSERVATIONS...

CITY           SKY/WX    TMP DP  RH WIND       PRES   REMARKS
CORPUS CHRISTI PTSUNNY   80  47  31 S15       30.13F
NAS CORPUS CHR MOSUNNY   72  62  71 S15       30.16F
ROCKPORT       SUNNY     71  60  68 S12       30.16F
KINGSVILLE NAS PTSUNNY   80  54  40 SE12      30.13F
ALICE          NOT AVBL
FALFURRIAS     MOSUNNY   80  45  28 S12       30.12F
$$

...VICTORIA AREA OBSERVATIONS...

CITY           SKY/WX    TMP DP  RH WIND       PRES   REMARKS
VICTORIA       SUNNY     80  44  27 S10       30.14F
BEEVILLE       FAIR      79  41  26 S8        30.14F
PLEASANTON     MOSUNNY   80  37  21 SE10      30.11F
SAN ANTONIO    PTSUNNY   79  39  23 S12       30.12F
$$

...LAREDO AREA OBSERVATIONS...

CITY           SKY/WX    TMP DP  RH WIND       PRES   REMARKS
LAREDO         SUNNY     82  39  21 SE12      30.11F
COTULLA        PTSUNNY   83  40  21 S12       30.09F
DEL RIO        SUNNY     80  40  23 SE15      30.06F
MCALLEN        MOSUNNY   77  51  40 SE16G22   30.13F
HEBBRONVILLE   MOSUNNY   80  32  18 SE14      30.12F
$$

...OTHER TEXAS OBSERVATIONS...

CITY           SKY/WX    TMP DP  RH WIND       PRES   REMARKS
BROWNSVILLE    SUNNY     76  60  57 S15G24    30.15F
HOUSTON        MOSUNNY   78  41  26 SE9       30.14F
COL. STATION   SUNNY     78  42  27 S14       30.11F
AUSTIN         MOSUNNY   78  41  26 S15G25    30.10F
WACO           SUNNY     79  44  28 S15       30.06F
FORT WORTH     PTSUNNY   79  39  23 S16       30.00F
WICHITA FALLS  PTSUNNY   77  45  32 SW16      29.95F
LUBBOCK        MOSUNNY   75  34  22 W26G33    30.02F
EL PASO        MOSUNNY   70  41  34 NE5       30.16F
$$

...MARINE OBSERVATIONS...

STATION/POSITION TIME  SKY/WX   TEMP    WIND        PRES    VSBY  WAVE   SWELL
                                AIR SEA DIR/SP/G                  HT/PER HT/PER
                 (UTC)          (F)     (DEG/KT/KT) (MB)    (MI)  (FT/S) (FT/S)
PORT ARANSAS     2000            61 60  160/  6/  6 1022.2F
BUOY 90 E PORT A 2000            69 70  220/  4/  6 1022.4F         1/ 4
BUOY 45 SE BAFFI 2000            68 70  170/ 10/ 12 1021.3F         1
BUOY 200 E PT IS 2000            71 75   CALM  /  2 1022.4F         1/ 4
BUOY 15 E GALVES 2000            59 58  120/  6/  6 1021.8F         1/ 5
$$


USA.gov is the U.S. government's official web portal to all federal, state and local government web resources and services.